YF9UAG-16 Weather Reports


time (UTC)temp
F
wind
direction
speed
knots
gust
knots
rain 1hr
in
rain 24hr
in
rain mn
in
humidity
%
barometer
mb
20260504205026 73 0 0.0 0.0 0.00 0.00 0.00 80 643.0
20260504204502 80 0 0.0 0.0 0.00 0.00 0.00 89 1010.0
20260504203941 80 0 0.0 0.0 0.00 0.00 0.00 88 1010.0
20260504203419 79 0 0.0 0.0 0.00 0.00 0.00 84 1010.0
20260504202857 80 0 0.0 0.0 0.00 0.00 0.00 89 1010.0
20260504202334 80 0 0.0 0.0 0.00 0.00 0.00 89 1009.0
20260504201812 80 0 0.0 0.0 0.00 0.00 0.00 89 1009.0
20260504201250 80 0 0.0 0.0 0.00 0.00 0.00 90 1009.0
20260504200728 80 0 0.0 0.0 0.00 0.00 0.00 90 1009.0
20260504200206 80 0 0.0 0.0 0.00 0.00 0.00 88 1009.0
20260504195644 80 0 0.0 0.0 0.00 0.00 0.00 85 1009.0
20260504195122 80 0 0.0 0.0 0.00 0.00 0.00 89 1009.0
20260504194600 80 0 0.0 0.0 0.00 0.00 0.00 89 1009.0
20260504194038 80 0 0.0 0.0 0.00 0.00 0.00 89 1009.0
20260504193516 80 0 0.0 0.0 0.00 0.00 0.00 89 1009.0
20260504192954 80 0 0.0 0.0 0.00 0.00 0.00 89 1009.0
20260504192433 80 0 0.0 0.0 0.00 0.00 0.00 87 1009.0
20260504191911 80 0 0.0 0.0 0.00 0.00 0.00 84 1009.0
20260504191348 81 0 0.0 0.0 0.00 0.00 0.00 88 1009.0
20260504190826 81 0 0.0 0.0 0.00 0.00 0.00 88 1009.0
20260504190304 80 0 0.0 0.0 0.00 0.00 0.00 89 1009.0
20260504185742 80 0 0.0 0.0 0.00 0.00 0.00 89 1009.0
20260504185220 80 0 0.0 0.0 0.00 0.00 0.00 87 1010.0
20260504184658 80 0 0.0 0.0 0.00 0.00 0.00 84 1009.0
20260504184136 81 0 0.0 0.0 0.00 0.00 0.00 88 1009.0
20260504183614 81 0 0.0 0.0 0.00 0.00 0.00 88 1009.0
20260504183052 81 0 0.0 0.0 0.00 0.00 0.00 89 1009.0
20260504182530 80 0 0.0 0.0 0.00 0.00 0.00 89 1009.0
20260504182008 80 0 0.0 0.0 0.00 0.00 0.00 88 1009.0
20260504181446 80 0 0.0 0.0 0.00 0.00 0.00 85 1009.0
20260504180924 81 0 0.0 0.0 0.00 0.00 0.00 86 1009.0
20260504180402 81 0 0.0 0.0 0.00 0.00 0.00 88 1009.0
20260504175840 81 0 0.0 0.0 0.00 0.00 0.00 88 1009.0
20260504175318 81 0 0.0 0.0 0.00 0.00 0.00 89 1009.0
20260504174756 80 0 0.0 0.0 0.00 0.00 0.00 88 1009.0
20260504174234 80 0 0.0 0.0 0.00 0.00 0.00 86 1009.0
20260504173712 80 0 0.0 0.0 0.00 0.00 0.00 84 1009.0
20260504173150 81 0 0.0 0.0 0.00 0.00 0.00 88 1009.0
20260504172628 81 0 0.0 0.0 0.00 0.00 0.00 88 1009.0
20260504172106 81 0 0.0 0.0 0.00 0.00 0.00 89 1009.0
20260504171544 80 0 0.0 0.0 0.00 0.00 0.00 89 1009.0
20260504171022 80 0 0.0 0.0 0.00 0.00 0.00 87 1009.0
20260504170500 80 0 0.0 0.0 0.00 0.00 0.00 85 1009.0
20260504150656 81 0 0.0 0.0 0.00 0.00 0.00 84 1011.0
20260504150134 80 0 0.0 0.0 0.00 0.00 0.00 81 1011.0
20260504141113 81 0 0.0 0.0 0.00 0.00 0.00 82 1011.0
20260504140551 80 0 0.0 0.0 0.00 0.00 0.00 79 1011.0
20260504130649 82 0 0.0 0.0 0.00 0.00 0.00 82 1012.0
20260504130127 81 0 0.0 0.0 0.00 0.00 0.00 83 1012.0
20260504120225 81 0 0.0 0.0 0.00 0.00 0.00 81 1011.0
20260504110323 82 0 0.0 0.0 0.00 0.00 0.00 79 1011.0
20260504100421 83 0 0.0 0.0 0.00 0.00 0.00 78 1010.0
20260504081701 83 0 0.0 0.0 0.00 0.00 0.00 82 1008.0
20260504081139 83 0 0.0 0.0 0.00 0.00 0.00 85 1008.0
20260504080617 83 0 0.0 0.0 0.00 0.00 0.00 84 1008.0
20260504070153 82 0 0.0 0.0 0.00 0.00 0.00 71 1008.0
20260504050349 101 0 0.0 0.0 0.00 0.00 0.00 35 1007.0
20260504045827 101 0 0.0 0.0 0.00 0.00 0.00 36 1007.0
20260504045305 99 0 0.0 0.0 0.00 0.00 0.00 37 1007.0
20260504044743 100 0 0.0 0.0 0.00 0.00 0.00 36 1008.0
20260504044221 100 0 0.0 0.0 0.00 0.00 0.00 37 1008.0
20260504043659 98 0 0.0 0.0 0.00 0.00 0.00 39 1008.0
20260504043137 97 0 0.0 0.0 0.00 0.00 0.00 40 1008.0
20260504042615 99 0 0.0 0.0 0.00 0.00 0.00 38 1008.0
20260504042053 99 0 0.0 0.0 0.00 0.00 0.00 39 1008.0
20260504041531 97 0 0.0 0.0 0.00 0.00 0.00 42 1008.0
20260504041009 95 0 0.0 0.0 0.00 0.00 0.00 44 1008.0
20260504040447 94 0 0.0 0.0 0.00 0.00 0.00 47 1008.0
20260504035925 93 0 0.0 0.0 0.00 0.00 0.00 49 1008.0
20260504035403 91 0 0.0 0.0 0.00 0.00 0.00 52 1008.0
20260504034841 90 0 0.0 0.0 0.00 0.00 0.00 52 1008.0
20260504034319 89 0 0.0 0.0 0.00 0.00 0.00 55 1008.0
20260504033757 88 0 0.0 0.0 0.00 0.00 0.00 55 1008.0
20260504033235 88 0 0.0 0.0 0.00 0.00 0.00 56 1009.0
20260504032713 88 0 0.0 0.0 0.00 0.00 0.00 58 1009.0
20260504032151 87 0 0.0 0.0 0.00 0.00 0.00 57 1009.0
20260504031629 87 0 0.0 0.0 0.00 0.00 0.00 59 1009.0
20260504031107 85 0 0.0 0.0 0.00 0.00 0.00 62 1009.0
20260504030545 86 0 0.0 0.0 0.00 0.00 0.00 62 1009.0
20260504030023 85 0 0.0 0.0 0.00 0.00 0.00 60 1009.0
20260504025501 85 0 0.0 0.0 0.00 0.00 0.00 58 1009.0
20260504024939 85 0 0.0 0.0 0.00 0.00 0.00 59 1009.0
20260504024417 85 0 0.0 0.0 0.00 0.00 0.00 60 1009.0
20260504023855 85 0 0.0 0.0 0.00 0.00 0.00 61 1010.0
20260504023333 85 0 0.0 0.0 0.00 0.00 0.00 62 1010.0
20260504022811 84 0 0.0 0.0 0.00 0.00 0.00 63 1010.0
20260504022249 84 0 0.0 0.0 0.00 0.00 0.00 63 1010.0
20260504021727 84 0 0.0 0.0 0.00 0.00 0.00 64 1010.0
20260504021205 85 0 0.0 0.0 0.00 0.00 0.00 67 1010.0
20260504020643 84 0 0.0 0.0 0.00 0.00 0.00 70 1010.0
20260504020121 84 0 0.0 0.0 0.00 0.00 0.00 69 1010.0
20260504015559 84 0 0.0 0.0 0.00 0.00 0.00 67 1010.0
20260504015037 84 0 0.0 0.0 0.00 0.00 0.00 70 1010.0
20260504014515 84 0 0.0 0.0 0.00 0.00 0.00 69 1011.0
20260504013953 83 0 0.0 0.0 0.00 0.00 0.00 70 1011.0
20260504013431 84 0 0.0 0.0 0.00 0.00 0.00 70 1011.0
20260504012909 84 0 0.0 0.0 0.00 0.00 0.00 68 1011.0
20260504012347 83 0 0.0 0.0 0.00 0.00 0.00 73 1011.0
20260504011825 84 0 0.0 0.0 0.00 0.00 0.00 72 1011.0
20260504011303 83 0 0.0 0.0 0.00 0.00 0.00 72 1011.0
20260504010741 83 0 0.0 0.0 0.00 0.00 0.00 71 1011.0
20260504010219 83 0 0.0 0.0 0.00 0.00 0.00 75 1011.0
20260504005657 82 0 0.0 0.0 0.00 0.00 0.00 77 1011.0
20260504005135 83 0 0.0 0.0 0.00 0.00 0.00 80 1011.0
20260504004613 83 0 0.0 0.0 0.00 0.00 0.00 76 1011.0
20260504004051 83 0 0.0 0.0 0.00 0.00 0.00 77 1012.0
20260504003529 82 0 0.0 0.0 0.00 0.00 0.00 76 1012.0
20260504003007 82 0 0.0 0.0 0.00 0.00 0.00 77 1012.0
20260504002445 83 0 0.0 0.0 0.00 0.00 0.00 80 1012.0
20260504001923 82 0 0.0 0.0 0.00 0.00 0.00 75 1012.0
20260504001401 82 0 0.0 0.0 0.00 0.00 0.00 75 1012.0
20260504000838 83 0 0.0 0.0 0.00 0.00 0.00 78 1012.0
20260504000317 82 0 0.0 0.0 0.00 0.00 0.00 75 1012.0
20260503235755 83 0 0.0 0.0 0.00 0.00 0.00 72 1012.0
20260503235233 83 0 0.0 0.0 0.00 0.00 0.00 75 1012.0
20260503234711 83 0 0.0 0.0 0.00 0.00 0.00 73 1012.0
20260503234149 83 0 0.0 0.0 0.00 0.00 0.00 70 1012.0
20260503233627 83 0 0.0 0.0 0.00 0.00 0.00 74 1012.0
20260503233105 83 0 0.0 0.0 0.00 0.00 0.00 74 1012.0
20260503232543 82 0 0.0 0.0 0.00 0.00 0.00 71 1012.0
20260503232021 83 0 0.0 0.0 0.00 0.00 0.00 75 1012.0
20260503231458 83 0 0.0 0.0 0.00 0.00 0.00 77 1012.0
20260503230937 82 0 0.0 0.0 0.00 0.00 0.00 75 1012.0
20260503230415 83 0 0.0 0.0 0.00 0.00 0.00 73 1011.0
20260503225852 83 0 0.0 0.0 0.00 0.00 0.00 78 1011.0
20260503225330 83 0 0.0 0.0 0.00 0.00 0.00 77 1011.0
20260503224808 83 0 0.0 0.0 0.00 0.00 0.00 75 1011.0
20260503224247 83 0 0.0 0.0 0.00 0.00 0.00 77 1011.0
20260503223725 83 0 0.0 0.0 0.00 0.00 0.00 80 1011.0
20260503223202 83 0 0.0 0.0 0.00 0.00 0.00 79 1011.0
20260503222641 82 0 0.0 0.0 0.00 0.00 0.00 77 1011.0
20260503222118 82 0 0.0 0.0 0.00 0.00 0.00 81 1011.0
20260503221557 82 0 0.0 0.0 0.00 0.00 0.00 85 1011.0
20260503221034 82 0 0.0 0.0 0.00 0.00 0.00 83 1011.0
20260503220513 81 0 0.0 0.0 0.00 0.00 0.00 81 1011.0
20260503215950 81 0 0.0 0.0 0.00 0.00 0.00 82 1011.0
20260503215428 81 0 0.0 0.0 0.00 0.00 0.00 86 1011.0
20260503214906 81 0 0.0 0.0 0.00 0.00 0.00 85 1011.0
20260503214344 81 0 0.0 0.0 0.00 0.00 0.00 82 1011.0
20260503213822 81 0 0.0 0.0 0.00 0.00 0.00 83 1011.0
20260503213300 81 0 0.0 0.0 0.00 0.00 0.00 87 1011.0
20260503212739 81 0 0.0 0.0 0.00 0.00 0.00 86 1011.0
20260503212217 81 0 0.0 0.0 0.00 0.00 0.00 83 1011.0
20260503211655 81 0 0.0 0.0 0.00 0.00 0.00 82 1011.0
20260503211132 81 0 0.0 0.0 0.00 0.00 0.00 87 1010.0
20260503210611 81 0 0.0 0.0 0.00 0.00 0.00 85 1010.0
20260503210048 81 0 0.0 0.0 0.00 0.00 0.00 83 1010.0
20260503205526 81 0 0.0 0.0 0.00 0.00 0.00 82 1010.0